Location: Huberhof
(49.2050°N, 7.4980°E)
Time: 04:47:14
(UTC+00:00)

SL-08 RB Rocket - Pass Details

Date: 29 October 2020
Orbit: 648 x 683 km, 97.8° (Epoch: 25 November)

Event Time Altitude Azimuth Distance (km) Brightness Sun altitude
Exits shadow 18:26:10 37° 29° (NNE) 1,019 4.4 -22.2°
Drops below altitude 10° 18:29:20 10° 357° (N) 2,077 6.3 -22.7°
Sets 18:31:37 0° 352° (N) 2,998 7.2 -23.1°
